Kemmerer, WY

9:56 PM MDT on October 19, 2019 (GMT -0600)
Kemmerer Municipal

Weather History for KEMM - September, 2019

Change the Weather History Date:

Monday, September 23, 2019

  Actual Average Record
Temperature  
Mean Temperature 50 °F -  
Max Temperature 68 °F 65 °F 82 °F (1952)
Min Temperature 33 °F 31 °F 18 °F (1955)
Degree Days  
Heating Degree Days 14    
Moisture  
Dew Point 28 °F    
Average Humidity 51    
Maximum Humidity 93    
Minimum Humidity 14    
Precipitation  
Precipitation 0.00 in - - ()
Sea Level Pressure  
Sea Level Pressure 30.23 in    
Wind  
Wind Speed 10 mph (NW)    
Max Wind Speed 22 mph    
Max Gust Speed 30 mph    
Visibility 10 miles    
Events      
Averages and records for this station are not official NWS values.
T = Trace of Precipitation, MM = Missing Value Source: NWS Daily Summary

Daily Weather History Graph

Daily Weather History Graph

Search for Another Location

Airport or City:

Astronomy

Sep. 23, 2019 Rise Set
Actual Time 7:10 AM MDT 7:17 PM MDT
Civil Twilight 6:42 AM MDT 7:45 PM MDT
Nautical Twilight 6:10 AM MDT 8:18 PM MDT
Astronomical Twilight 5:36 AM MDT 8:51 PM MDT
Moon 12:51 AM MDT (9/23) 4:20 PM MDT (9/23)
Length of Visible Light 13h 02m
Length of Day
12h 07m
Waning Crescent, 32% of the Moon is Illuminated
Sep 23
Waning Crescent
Sep 28
New
Oct 5
First Quarter
Oct 13
Full
Oct 21
Last Quarter

Hourly Weather History & Observations

Time (MDT) Temp. Windchill Dew Point Humidity Pressure Visibility Wind Dir Wind Speed Gust Speed Precip Events Conditions
12:15 AM 37.4 °F 30.8 °F 32.0 °F 81% 30.20 in 10.0 mi North 9.2 mph - N/A   Clear
12:35 AM 37.4 °F 29.8 °F 32.0 °F 81% 30.20 in 10.0 mi North 11.5 mph - N/A   Clear
12:55 AM 37.4 °F 29.8 °F 32.0 °F 81% 30.20 in 10.0 mi NNW 11.5 mph - N/A   Clear
1:15 AM 37.4 °F 29.8 °F 32.0 °F 81% 30.19 in 10.0 mi NNW 11.5 mph - N/A   Clear
1:35 AM 37.4 °F 30.3 °F 32.0 °F 81% 30.18 in 10.0 mi NNW 10.4 mph - N/A   Clear
1:55 AM 37.4 °F 29.8 °F 32.0 °F 81% 30.19 in 10.0 mi NNW 11.5 mph - N/A   Clear
2:15 AM 37.4 °F 29.8 °F 32.0 °F 81% 30.20 in 10.0 mi NNW 11.5 mph - N/A   Clear
2:35 AM 37.4 °F 30.3 °F 32.0 °F 81% 30.20 in 10.0 mi NNW 10.4 mph - N/A   Clear
2:55 AM 37.4 °F 30.3 °F 32.0 °F 81% 30.20 in 10.0 mi North 10.4 mph - N/A   Clear
3:15 AM 33.8 °F 26.4 °F 32.0 °F 93% 30.18 in 10.0 mi North 9.2 mph - N/A   Clear
3:35 AM 35.6 °F 28.6 °F 32.0 °F 87% 30.18 in 10.0 mi North 9.2 mph - N/A   Clear
3:55 AM 35.6 °F 28.0 °F 32.0 °F 87% 30.19 in 10.0 mi NNW 10.4 mph - N/A   Clear
4:15 AM 35.6 °F 29.2 °F 32.0 °F 87% 30.19 in 10.0 mi NNW 8.1 mph - N/A   Clear
4:35 AM 35.6 °F 29.2 °F 32.0 °F 87% 30.18 in 10.0 mi NNW 8.1 mph - N/A   Clear
4:55 AM 35.6 °F 29.2 °F 30.2 °F 81% 30.18 in 10.0 mi NNW 8.1 mph - N/A   Clear
5:15 AM 35.6 °F 28.6 °F 30.2 °F 81% 30.18 in 10.0 mi NNW 9.2 mph - N/A   Clear
5:35 AM 33.8 °F 25.8 °F 30.2 °F 87% 30.18 in 10.0 mi North 10.4 mph - N/A   Clear
5:55 AM 33.8 °F 26.4 °F 30.2 °F 87% 30.19 in 10.0 mi NNW 9.2 mph - N/A   Clear
6:15 AM 35.6 °F 27.5 °F 30.2 °F 81% 30.18 in 10.0 mi North 11.5 mph - N/A   Clear
6:35 AM 33.8 °F 25.8 °F 30.2 °F 87% 30.20 in 10.0 mi NNW 10.4 mph - N/A   Clear
6:55 AM 35.6 °F 28.6 °F 30.2 °F 81% 30.20 in 10.0 mi NNW 9.2 mph - N/A   Clear
7:15 AM 33.8 °F 25.8 °F 30.2 °F 87% 30.20 in 10.0 mi NNW 10.4 mph - N/A   Clear
7:35 AM 37.4 °F 30.8 °F 30.2 °F 75% 30.21 in 10.0 mi NNW 9.2 mph - N/A   Clear
7:55 AM 35.6 °F 28.6 °F 30.2 °F 81% 30.21 in 10.0 mi NNW 9.2 mph - N/A   Clear
8:15 AM 37.4 °F 31.4 °F 30.2 °F 75% 30.22 in 10.0 mi NNW 8.1 mph - N/A   Clear
8:35 AM 39.2 °F 33.0 °F 32.0 °F 75% 30.22 in 10.0 mi North 9.2 mph - N/A   Clear
8:55 AM 42.8 °F 38.6 °F 32.0 °F 66% 30.23 in 10.0 mi NNW 6.9 mph - N/A   Clear
9:15 AM 46.4 °F 42.9 °F 32.0 °F 57% 30.24 in 10.0 mi North 6.9 mph - N/A   Clear
9:35 AM 50.0 °F - 32.0 °F 50% 30.25 in 10.0 mi North 5.8 mph - N/A   Clear
9:55 AM 53.6 °F - 32.0 °F 44% 30.25 in 10.0 mi North 4.6 mph - N/A   Clear
10:15 AM 55.4 °F - 30.2 °F 38% 30.25 in 10.0 mi Calm Calm - N/A   Clear
10:35 AM 59.0 °F - 30.2 °F 34% 30.25 in 10.0 mi Calm Calm - N/A   Clear
10:55 AM 60.8 °F - 30.2 °F 31% 30.25 in 10.0 mi South 3.5 mph - N/A   Clear
11:15 AM 60.8 °F - 28.4 °F 29% 30.26 in 10.0 mi SSW 4.6 mph - N/A   Clear
11:35 AM 60.8 °F - 28.4 °F 29% 30.26 in 10.0 mi Calm Calm - N/A   Clear
11:55 AM 62.6 °F - 28.4 °F 27% 30.25 in 10.0 mi WSW 3.5 mph - N/A   Clear
12:15 PM 64.4 °F - 28.4 °F 26% 30.25 in 10.0 mi West 5.8 mph - N/A   Clear
12:35 PM 64.4 °F - 28.4 °F 26% 30.24 in 10.0 mi NW 4.6 mph - N/A   Clear
12:55 PM 66.2 °F - 26.6 °F 23% 30.24 in 10.0 mi SSW 9.2 mph - N/A   Clear
1:15 PM 66.2 °F - 19.4 °F 17% 30.24 in 10.0 mi SW 13.8 mph 20.7 mph N/A   Clear
1:35 PM 68.0 °F - 19.4 °F 16% 30.23 in 10.0 mi SW 12.7 mph 19.6 mph N/A   Clear
1:55 PM 68.0 °F - 19.4 °F 16% 30.23 in 10.0 mi WSW 12.7 mph 24.2 mph N/A   Clear
2:15 PM 68.0 °F - 17.6 °F 15% 30.23 in 10.0 mi WSW 19.6 mph 24.2 mph N/A   Clear
2:35 PM 68.0 °F - 19.4 °F 16% 30.23 in 10.0 mi WSW 15.0 mph 26.5 mph N/A   Clear
2:55 PM 68.0 °F - 21.2 °F 17% 30.22 in 10.0 mi West 11.5 mph 20.7 mph N/A   Clear
3:15 PM 68.0 °F - 21.2 °F 17% 30.22 in 10.0 mi WSW 21.9 mph 28.8 mph N/A   Clear
3:35 PM 68.0 °F - 19.4 °F 16% 30.23 in 10.0 mi West 9.2 mph 29.9 mph N/A   Clear
3:55 PM 68.0 °F - 17.6 °F 15% 30.22 in 10.0 mi West 15.0 mph 21.9 mph N/A   Clear
4:15 PM 68.0 °F - 19.4 °F 16% 30.22 in 10.0 mi WSW 19.6 mph 24.2 mph N/A   Clear
4:35 PM 68.0 °F - 19.4 °F 16% 30.21 in 10.0 mi WSW 20.7 mph 27.6 mph N/A   Clear
4:55 PM 66.2 °F - 17.6 °F 15% 30.22 in 10.0 mi West 21.9 mph 25.3 mph N/A   Clear
5:15 PM 66.2 °F - 15.8 °F 14% 30.22 in 10.0 mi WNW 13.8 mph 24.2 mph N/A   Clear
5:35 PM 64.4 °F - 17.6 °F 16% 30.23 in 10.0 mi West 18.4 mph 27.6 mph N/A   Clear
5:55 PM 64.4 °F - 21.2 °F 19% 30.23 in 10.0 mi West 16.1 mph 21.9 mph N/A   Clear
6:15 PM 62.6 °F - 23.0 °F 22% 30.24 in 10.0 mi WNW 19.6 mph 24.2 mph N/A   Clear
6:35 PM 60.8 °F - 23.0 °F 23% 30.25 in 10.0 mi West 12.7 mph 23.0 mph N/A   Clear
6:55 PM 59.0 °F - 23.0 °F 25% 30.25 in 10.0 mi WNW 13.8 mph 19.6 mph N/A   Clear
7:15 PM 55.4 °F - 24.8 °F 31% 30.26 in 10.0 mi NW 9.2 mph - N/A   Clear
7:35 PM 53.6 °F - 26.6 °F 35% 30.26 in 10.0 mi WNW 5.8 mph - N/A   Clear
7:55 PM 51.8 °F - 26.6 °F 38% 30.27 in 10.0 mi WNW 5.8 mph - N/A   Clear
8:15 PM 51.8 °F - 28.4 °F 41% 30.28 in 10.0 mi West 6.9 mph - N/A   Clear
8:35 PM 50.0 °F - 28.4 °F 43% 30.29 in 10.0 mi West 5.8 mph - N/A   Clear
8:55 PM 50.0 °F - 30.2 °F 47% 30.30 in 10.0 mi WNW 3.5 mph - N/A   Clear
9:15 PM 50.0 °F - 30.2 °F 47% 30.30 in 10.0 mi Calm Calm - N/A   Clear
9:35 PM 50.0 °F - 32.0 °F 50% 30.30 in 10.0 mi Calm Calm - N/A   Clear
9:55 PM 48.2 °F - 32.0 °F 54% 30.31 in 10.0 mi NNE 3.5 mph - N/A   Clear
10:15 PM 48.2 °F - 32.0 °F 54% 30.31 in 10.0 mi NW 5.8 mph - N/A   Clear
10:35 PM 46.4 °F 43.5 °F 32.0 °F 57% 30.31 in 10.0 mi NW 5.8 mph - N/A   Clear
10:55 PM 46.4 °F 42.4 °F 33.8 °F 62% 30.31 in 10.0 mi NW 8.1 mph - N/A   Clear
11:15 PM 44.6 °F 43.1 °F 33.8 °F 66% 30.31 in 10.0 mi North 3.5 mph - N/A   Clear
11:55 PM 46.4 °F 43.5 °F 32.0 °F 57% 30.30 in 10.0 mi West 5.8 mph - N/A   Clear